La Junta, CO

9:20 AM MST on January 16, 2017 (GMT -0700)
La Junta Municipal

Weather History for KLHX - December, 2012

Change the Weather History Date:

Friday, December 7, 2012

  Actual Average Record
Temperature  
Mean Temperature 38 °F 32 °F  
Max Temperature 54 °F 45 °F 73 °F (1984)
Min Temperature 22 °F 18 °F -9 °F (2005)
Degree Days  
Heating Degree Days 27 33  
Month to date heating degree days 128 226  
Since 1 July heating degree days 1088 1371  
Cooling Degree Days 0 0  
Month to date cooling degree days 0 0  
Year to date cooling degree days 1733 1226  
Moisture  
Dew Point 16 °F    
Average Humidity 46    
Maximum Humidity 65    
Minimum Humidity 26    
Precipitation  
Precipitation 0.00 in 0.01 in 0.13 in (1988)
Month to date precipitation T 0.06  
Year to date precipitation 5.52  
Sea Level Pressure  
Sea Level Pressure 29.88 in    
Wind  
Wind Speed 7 mph (North)    
Max Wind Speed 16 mph    
Max Gust Speed 20 mph    
Visibility 10 miles    
Events      
T = Trace of Precipitation, MM = Missing Value Source: NWS Daily Summary

Daily Weather History Graph

Daily Weather History Graph

Search for Another Location

Airport or City:

Trip Planner

Search our weather history database for the weather conditions in past years. The results will help you decide how hot, cold, wet, or windy it might be!

Date:

Astronomy

Dec. 07, 2012 Rise Set
Actual Time 6:57 AM MST 4:34 PM MST
Civil Twilight 6:27 AM MST 5:03 PM MST
Nautical Twilight 5:55 AM MST 5:36 PM MST
Astronomical Twilight 5:23 AM MST 6:08 PM MST
Moon 12:24 AM MST (12/7) 12:27 PM MST (12/7)
Length of Visible Light 10h 35m
Length of Day
9h 36m
Last Quarter, 38% of the Moon is Illuminated
Dec 7
Last Quarter
Dec 13
New
Dec 19
First Quarter
Dec 28
Full
Jan 4
Last Quarter

Hourly Weather History & Observations

Time (MST) Temp. Windchill Dew Point Humidity Pressure Visibility Wind Dir Wind Speed Gust Speed Precip Events Conditions
12:53 AM 32.0 °F 24.2 °F 16.0 °F 52% 29.86 in 10.0 mi East 9.2 mph - N/A   Clear
1:53 AM 28.9 °F 21.9 °F 15.1 °F 56% 29.86 in 10.0 mi East 6.9 mph - N/A   Clear
2:53 AM 27.0 °F 19.5 °F 15.1 °F 61% 29.85 in 10.0 mi East 6.9 mph - N/A   Clear
3:53 AM 26.1 °F - 14.0 °F 60% 29.84 in 10.0 mi Calm Calm - N/A   Clear
4:53 AM 23.0 °F 15.8 °F 12.9 °F 65% 29.86 in 10.0 mi NW 5.8 mph - N/A   Clear
5:53 AM 23.0 °F 18.4 °F 12.9 °F 65% 29.86 in 10.0 mi West 3.5 mph - N/A   Clear
6:53 AM 23.0 °F 11.7 °F 12.9 °F 65% 29.88 in 10.0 mi WSW 11.5 mph - N/A   Clear
7:53 AM 27.0 °F 18.0 °F 12.9 °F 56% 29.89 in 10.0 mi West 9.2 mph - N/A   Clear
8:53 AM 30.9 °F 22.8 °F 14.0 °F 50% 29.89 in 10.0 mi West 9.2 mph - N/A   Clear
9:53 AM 34.0 °F 28.8 °F 15.1 °F 46% 29.89 in 10.0 mi West 5.8 mph - N/A   Clear
10:53 AM 39.9 °F 33.9 °F 16.0 °F 38% 29.86 in 10.0 mi West 9.2 mph - N/A   Clear
11:53 AM 45.0 °F 40.6 °F 18.0 °F 34% 29.82 in 10.0 mi WNW 8.1 mph - N/A   Clear
12:53 PM 51.1 °F - 19.0 °F 28% 29.78 in 10.0 mi West 4.6 mph - N/A   Clear
1:53 PM 54.0 °F - 19.0 °F 25% 29.78 in 10.0 mi NE 5.8 mph - N/A   Clear
2:53 PM 53.1 °F - 19.0 °F 26% 29.79 in 10.0 mi ENE 12.7 mph - N/A   Clear
3:53 PM 51.1 °F - 19.0 °F 28% 29.81 in 10.0 mi East 12.7 mph - N/A   Clear
4:53 PM 46.0 °F 41.4 °F 19.9 °F 35% 29.86 in 10.0 mi East 9.2 mph - N/A   Clear
6:53 PM 37.0 °F 29.8 °F 19.0 °F 48% 29.96 in 10.0 mi ENE 10.4 mph - N/A   Clear
7:53 PM 33.1 °F 27.7 °F 18.0 °F 54% 29.99 in 10.0 mi ENE 5.8 mph - N/A   Clear
9:53 PM 28.0 °F 22.8 °F 16.0 °F 61% 30.02 in 10.0 mi NNW 4.6 mph - N/A   Clear
10:53 PM 26.1 °F 17.6 °F 16.0 °F 66% 30.02 in 10.0 mi North 8.1 mph - N/A   Clear
11:53 PM 27.0 °F 23.0 °F 15.1 °F 61% 29.98 in 10.0 mi North 3.5 mph - N/A   Clear